Showing default

OPS 5798 (TRANSIT 5B-4), 897

Orbit data source: Space-Track

OPS 5798 (TRANSIT 5B-4), 897 is a payload satellite owned by USN BuWeps (US) in LEO that was launched on Tue, 06 Oct 1964 UTC via a THOR ABLESTAR launch vehicle from the Air Force Western Test Range (AFWTR). Payload-class satellites include a variety of spacecraft equipped with specific instruments for various scientific and technological missions. These include communications satellites like Starlink; space stations such as the ISS; scientific satellites like the Hubble; Earth observation satellites from companies like Planet Labs, Umbra, and HawkEye 360; GPS; miniature CubeSats for education and research; and military/defense satellites.

Loading next visibility...
Identifier
897, 1964-063B
Orbit
LEO
Country
Flag of USUS
Related business
Manufacturer
NAFI
Mission
Spacecraft
Bus & Motor
TRANSIT 5, Unknown motor
Mass
~54 kg wet, ~54 kg dry
Launch date (UTC)
1964-10-06 (62 years ago)
Launch vehicle
THOR ABLESTAR
Launch site
Air Force Western Test Range (AFWTR)
Object type
Payload
Rocket body
Debris
Shape & HBR
OCT CYL + 4 PAN + ANT, 15.0 m
Radar Cross Section
Medium (>0.1 m² and <1 m²)

Expand to show TLE details & history
Last TLE update: 13 hours ago

TLE from 13 hours ago
0 OPS 5798 (TRANSIT 5B-4)
1 00897U 64063B   26207.16077043  .00000042  00000-0  49298-4 0  9990
2 00897  90.2321  76.4411 0021517  67.3110  53.0609 13.53738688 50493
Epoch: 2026-07-26T03:51Z
TLE epoch observation values (Epoch: 2026-07-26T03:51:30.565Z)
Latitude
59.52065°
Longitude
-104.90661°
Altitude
1,059.123 km
Speed
7.333 km/s
True Right ascension
17h 07m 20s
True Declination
59° 22' 34"
Sunlit
Object was in daylight at epoch
Visualization orbit readout
Latitude
Unknown
Longitude
Unknown
Altitude
Unknown
Speed
Unknown
Apparent Right ascension
Unknown
Apparent Declination
Unknown
Sunlit
N/A
Visualization observer readout
Local Sidereal Time
06:20:52
Azimuth
Unknown
Elevation
Unknown
Doppler factor
Unknown
Orbital elements
Apogee altitude
1,071.574 km
Perigee altitude
1,039.584 km
Semi-major axis
7,433.716 km
Eccentricity
0.00215
Inclination
90.2321°
RAAN
76.4411°
Arg. of periapsis
67.311°
True anomaly
53.25829°
Mean anomaly
53.0609°
Eccentric anomaly
53.15956°
Mean motion
3.38637 °/min
Orbital period
106.31 mins
BSTAR
0.000049298
Loading maneuver chart data...
Computing Atmospheric mass density...
Loading historical data...
Loading historical data...
Loading historical data...
Loading historical data...
Loading historical data...
Loading historical data...
Loading historical data...
Other satellites on launch #63 in the year 1964 (1964-10-06 UTC)

Documentation

Showing up to 5 results
|